7 * 24
多渠道服务支持
STARLINK-11283 是由 SpaceX 发射的星链(Starlink)卫星之一,属于其低轨卫星互联网星座计划的一部分。该卫星旨在为全球用户提供高速、低延迟的互联网服务,尤其关注网络覆盖不足的地区。它运行在约 550 公里的低地球轨道,配备先进通信设备,支持 Ku 和 Ka 频段。作为星链计划的组成部分,STARLINK-11283 有助于构建更广泛的全球互联网接入网络,并推动 SpaceX 在商业航天和通信领域的布局。
美国
(US)
| 数据来源 | 国际轨道数据 |
| 星历时间: | 2025-12-15T01:10:28+0800 1天前 查看轨道信息 |
| 半长轴: | 6737.85km |
| 偏心率: | 0.0001119 |
| 轨道倾角: | 53.160° |
| 近地点辐角 | 65.482° |
| 升交点赤经 | 340.513° |
| 平近点角 | 294.631° |
| 近地点: | 358.961km |
| 远地点: | 360.469km |
| 周期: | 91.736分钟 |
| 每日圈数: | 15.697151 |